Content
SEND FEEDBACK

Daily
Averages
Monthly
Summary
Philippines

BOOT, PHILIPPINES


Home > Asia > Philippines
Elevation: 36 feet     Latitude: 14 04N     Longitude: 121 03E

WEATHER
 
SELECT A DAY
Number of Records: 178,886;   Date Range: 7/1/96 - 12/18/14
 
SHARE

PRINT THIS DATA

[ ← Previous Day ]
WEATHER ALMANAC - JANUARY 31, 2013
[ Next Day → ]
[ °C ]   °F
Weather ElementAverageHighLow
Temperature79.3 °F86 °F (12:00 pm)73 °F (2:00 am)
Dewpoint67.1 °F70 °F (8:00 am)62.6 °F (2:00 am)
Humidity65.1 %83 % (5:00 am)47 % (2:00 pm)
Barometer29.99 in30.04 in (7:00 am)29.89 in (8:00 am)
Wind Speed5.3 mph10.4 mph (2:00 pm)
Weather ElementAverage
Visibility6.1 mi
Wind DirectionE (86.1 °)

Weather ElementTotal
Precipitation---
Cooling Degree Days14.5 (Base 65)
Growing Degree Days29.5 (Base 50)
Averaged from 30 records on January 31, 2013
WEATHER CONDITIONS BREAKOUT
WIND DIRECTION BREAKOUT
WEATHER BY HOUR - JANUARY 31, 2013
[ °C ]   °F
Local TimeTemperatureDewpointHumidityBarometerVisibilityWind DirectionWind SpeedGust SpeedPrecipitationEventsConditions
1:00 AM75.2 °F64.4 °F69 %30.01 in6.2 miVariable2.3 mphPartly Cloudy
2:00 AM73.0 °F63.0 °F64 %30.01 in6.0 miCalmHaze
2:00 AM73.4 °F62.6 °F69 %30.01 in6.2 miCalmPartly Cloudy
3:00 AM73.4 °F64.4 °F73 %29.98 in6.2 miNW (310°)4.6 mphScattered Clouds
4:00 AM73.4 °F66.2 °F78 %29.98 in6.2 miVariable2.3 mphMostly Cloudy
5:00 AM74.0 °F67.0 °F74 %30.01 in6.0 miWNW (300°)2.2 mphHaze
5:00 AM73.4 °F68.0 °F83 %30.01 in6.2 miVariable2.3 mphMostly Cloudy
6:00 AM75.2 °F68.0 °F78 %30.01 in6.2 miNW (310°)4.6 mphMostly Cloudy
7:00 AM75.2 °F66.2 °F73 %30.04 in6.2 miNW (310°)4.6 mphMostly Cloudy
8:00 AM76.0 °F70.0 °F76 %30.04 in6.0 miNNE (30°)2.2 mphHaze
8:00 AM77.0 °F66.2 °F69 %29.89 in6.2 miVariable2.3 mphPartly Cloudy
9:00 AM80.6 °F66.2 °F61 %30.04 in6.2 miVariable3.5 mphMostly Cloudy
10:00 AM82.4 °F66.2 °F58 %30.04 in6.2 miEast (100°)9.2 mphMostly Cloudy
11:00 AM84.2 °F66.2 °F55 %30.04 in5.6 miEast (90°)8.1 mphMostly Cloudy
12:00 PM86.0 °F68.0 °F55 %30.01 in5.6 miEast (90°)6.9 mphMostly Cloudy
1:00 PM84.2 °F66.2 °F55 %29.98 in5.6 miEast (100°)8.1 mphMostly Cloudy
2:00 PM85.0 °F68.0 °F47 %29.95 in6.0 miNE (50°)8.9 mphHaze
2:00 PM84.2 °F68.0 °F58 %29.95 in6.2 miNE (50°)10.4 mphMostly Cloudy
3:00 PM84.2 °F68.0 °F58 %29.92 in6.2 miSE (130°)9.2 mphMostly Cloudy
4:00 PM84.2 °F68.0 °F58 %29.92 in6.2 miNorth (360°)9.2 mphMostly Cloudy
5:00 PM83.0 °F68.0 °F52 %29.94 in6.0 miNE (40°)8.9 mphPartly Cloudy
5:00 PM82.4 °F68.0 °F62 %29.92 in6.2 miNE (40°)9.2 mphMostly Cloudy
6:00 PM82.4 °F68.0 °F62 %29.95 in6.2 miNorth (10°)6.9 mphOvercast
7:00 PM80.6 °F68.0 °F65 %29.95 in6.2 miNNE (30°)9.2 mphOvercast
8:00 PM80.0 °F68.0 °F59 %29.98 in6.0 miNorth (10°)6.7 mphHaze
8:00 PM80.6 °F68.0 °F65 %29.98 in6.2 miNorth (10°)6.9 mphMostly Cloudy
9:00 PM78.8 °F68.0 °F69 %29.98 in6.2 miNNE (30°)4.6 mphScattered Clouds
10:00 PM78.8 °F68.0 °F69 %30.01 in6.2 miNorth (10°)4.6 mphScattered Clouds
11:00 PM79.0 °F69.0 °F64 %30.00 in6.0 miCalmHaze
11:00 PM78.8 °F69.8 °F74 %30.01 in6.2 miCalmMostly Cloudy
Hourly data recorded from RPLL, located miles away from Boot, Philippines







STORIES FROM OUR PARTNERS